星链-30190 (STARLINK-30190 )

导读 | 星芒AI

STARLINK-30190 是 SpaceX Starlink 卫星互联网项目中的一颗低轨卫星,属于第 12 批组网发射的“星链”卫星之一。该卫星于 2022 年 3 月 30 日由猎鹰 9 号火箭从美国卡纳维拉尔角发射升空。它运行在约 550 公里的轨道高度,旨在为全球用户提供高速、低延迟的互联网服务。STARLINK-30190 采用先进的星间通信技术,支持全球范围内的数据传输,是 SpaceX 构建全球宽带网络的重要组成部分。

基本信息
目录编号:
57471
目录名称:
STARLINK-30190
国际标识:
2023-107Q
轨道中心:
EARTH
卫星名称:
星链-30190
卫星全名:
星链-30190 (STARLINK-30190 )
卫星状态:
在轨 (已飞行825 天)
发射日期:
2023-07-28 UTC
国别 :
美国 (US)
星等 :
--
轨道信息
数据来源 国际轨道数据
星历时间: 2025-10-30T13:28:43+0800
13小时前
查看轨道信息
半长轴: 6747.956km
偏心率: 0.0032812
轨道倾角: 42.978°
近地点辐角 138.998°
升交点赤经 273.448°
平近点角 221.336°
近地点: 347.679km
远地点: 391.963km
周期: 91.943分钟
每日圈数: 15.661899
详细信息
固有亮度:
5
最大亮度:
0.3
卫星平台:
Starlink v2.0 mini
覆盖范围:
全球
运营商:
太空探索技术公司
运营商所在国:
美国
制造商(研发单位):
太空探索技术公司
制造商所在国:
美国
使用方式:
暂无
卫星简介
星链(Starlink)计划是由太空探索技术公司(SpaceX)提出的一个巨型低轨卫星互联网星座项目,计划在2019年至2024年间在太空搭建由约1.2万颗卫星组成的“星链”网络,其中1584颗将部署在地球上空550千米处的近地轨道,并从2020年开始工作。该卫星仍在工作。
2D轨道图
3D轨道图
轨道高度分析图
轨道倾角分析图
轨道综合分析图
查看轨道综合分析图